Find Starlink 30997

NORAD ID: 58482 Int'l Des: 2023-186 Owner: SPXS Country: US Constellation: starlink operational
LEOCIRCULAR

当前视图

正在加载3D地球...

About Starlink 30997

Starlink 30997 (NORAD 58482) is a starlink constellation satellite (v2 mini) launched Dec 3, 2023 by SPXS of US. It operates in LEO, CIRCULAR orbit with a mass of 730.00 kg.

即将过境

Passes for default location (London). Set your location on the main map for personalized predictions.

高度历史

Loading altitude history...

两行轨道根数

1 58482U 23186K 26235.28330659 .00012036 00000-0 44591-3 0 9999
2 58482 43.0006 202.8615 0000878 264.8213 95.2538 15.27601299151376
Epoch: Aug 23, 2026 • Age: 18 hours

当前状态

高度 493.0 km
远地点 / 近地点 N/A
速度 7.62 km/s
星下点 -36.56°S, 81.84°E
发射日期 Dec 3, 2023
运行时间 2.7 years
类型 internet

技术详情

分类 Payload
质量 730.00 kg
干质量 700.00 kg
总质量 730.00 kg
长度 0.30 m
直径 4.10 m
跨度 29.00 m
形状 Box + pan
制造商 SPXS
平台类型 Starlink V2M
阶段状态 In Orbit
所有者/国家 SPXS/US

Most Searched